Time,TemperatureF,DewpointF,PressureIn,WindDirection,WindDirectionDegrees,WindSpeedMPH,WindSpeedGustMPH,Humidity,HourlyPrecipIn,Conditions,Clouds,dailyrainin,SoftwareType,DateUTC
2013-10-25 00:00:00,41.5,40.2,30.17,NNE,28,0.0,0.0,95,0.00,,,0.00,Wunderground v.1.15,2013-10-25 04:00:00,
2013-10-25 00:05:00,41.5,40.2,30.17,NNE,28,0.0,0.0,95,0.00,,,0.00,Wunderground v.1.15,2013-10-25 04:05:00,
2013-10-25 00:10:00,41.5,39.9,30.17,NNE,28,0.0,0.0,94,0.00,,,0.00,Wunderground v.1.15,2013-10-25 04:10:00,
2013-10-25 00:15:00,41.5,39.9,30.17,NNE,28,0.0,0.0,94,0.00,,,0.00,Wunderground v.1.15,2013-10-25 04:15:00,
2013-10-25 00:20:00,41.4,39.8,30.17,NNE,28,0.0,0.0,94,0.00,,,0.00,Wunderground v.1.15,2013-10-25 04:20:00,
2013-10-25 00:25:00,41.5,39.9,30.17,NNE,28,0.0,0.0,94,0.00,,,0.00,Wunderground v.1.15,2013-10-25 04:25:00,
2013-10-25 00:30:00,41.5,39.1,30.17,NNE,28,0.0,0.0,91,0.00,,,0.00,Wunderground v.1.15,2013-10-25 04:30:00,
2013-10-25 00:35:00,41.8,38.8,30.17,NNE,28,0.0,0.0,89,0.00,,,0.00,Wunderground v.1.15,2013-10-25 04:35:00,
2013-10-25 00:40:00,42.0,38.4,30.17,NNE,28,0.0,0.0,87,0.00,,,0.00,Wunderground v.1.15,2013-10-25 04:40:00,
2013-10-25 00:45:00,42.3,38.7,30.17,NNE,28,0.0,0.0,87,0.00,,,0.00,Wunderground v.1.15,2013-10-25 04:45:00,
2013-10-25 00:50:00,42.5,38.9,30.17,NNE,28,0.0,0.0,87,0.00,,,0.00,Wunderground v.1.15,2013-10-25 04:50:00,
2013-10-25 00:55:00,42.7,38.5,30.17,NNE,28,0.0,0.0,85,0.00,,,0.00,Wunderground v.1.15,2013-10-25 04:55:00,
2013-10-25 01:05:00,43.1,38.3,30.18,NNE,28,0.0,0.0,83,0.00,,,0.00,Wunderground v.1.15,2013-10-25 05:05:00,
2013-10-25 01:10:00,43.2,37.8,30.18,NNE,28,0.0,0.0,81,0.00,,,0.00,Wunderground v.1.15,2013-10-25 05:10:00,
2013-10-25 01:15:00,43.4,37.6,30.18,NNE,28,1.0,1.0,80,0.00,,,0.00,Wunderground v.1.15,2013-10-25 05:15:00,
2013-10-25 01:25:00,43.7,37.0,30.18,North,5,1.0,1.0,77,0.00,,,0.00,Wunderground v.1.15,2013-10-25 05:25:00,
2013-10-25 01:30:00,43.9,37.2,30.18,North,5,1.0,1.0,77,0.00,,,0.00,Wunderground v.1.15,2013-10-25 05:30:00,
2013-10-25 01:40:00,44.1,37.3,30.18,North,5,1.0,1.0,77,0.00,,,0.00,Wunderground v.1.15,2013-10-25 05:40:00,
2013-10-25 01:45:00,44.1,36.7,30.18,NNE,23,1.0,2.0,75,0.00,,,0.00,Wunderground v.1.15,2013-10-25 05:45:00,
2013-10-25 01:50:00,44.1,37.0,30.19,NNE,23,1.0,1.0,76,0.00,,,0.00,Wunderground v.1.15,2013-10-25 05:50:00,
2013-10-25 02:00:00,44.1,37.0,30.19,North,5,1.0,1.0,76,0.00,,,0.00,Wunderground v.1.15,2013-10-25 06:00:00,
2013-10-25 02:05:00,44.1,37.0,30.18,NNE,26,1.0,1.0,76,0.00,,,0.00,Wunderground v.1.15,2013-10-25 06:05:00,
2013-10-25 02:10:00,44.0,36.9,30.19,NNE,26,1.0,1.0,76,0.00,,,0.00,Wunderground v.1.15,2013-10-25 06:10:00,
2013-10-25 02:20:00,44.0,36.9,30.18,NNE,22,1.0,1.0,76,0.00,,,0.00,Wunderground v.1.15,2013-10-25 06:20:00,
2013-10-25 02:25:00,43.9,36.8,30.19,NNE,22,1.0,1.0,76,0.00,,,0.00,Wunderground v.1.15,2013-10-25 06:25:00,
2013-10-25 02:30:00,43.9,36.8,30.19,NNE,22,0.0,0.0,76,0.00,,,0.00,Wunderground v.1.15,2013-10-25 06:30:00,
2013-10-25 02:40:00,43.8,37.1,30.19,NNE,20,0.0,0.0,77,0.00,,,0.00,Wunderground v.1.15,2013-10-25 06:40:00,
2013-10-25 02:45:00,43.8,37.1,30.19,NNE,20,0.0,0.0,77,0.00,,,0.00,Wunderground v.1.15,2013-10-25 06:45:00,
2013-10-25 02:50:00,43.8,37.1,30.19,NNE,20,0.0,0.0,77,0.00,,,0.00,Wunderground v.1.15,2013-10-25 06:50:00,
2013-10-25 03:00:00,43.7,37.3,30.19,NNE,26,0.0,0.0,78,0.00,,,0.00,Wunderground v.1.15,2013-10-25 07:00:00,
2013-10-25 03:05:00,43.7,37.0,30.19,NNE,26,0.0,2.0,77,0.00,,,0.00,Wunderground v.1.15,2013-10-25 07:05:00,
2013-10-25 03:15:00,43.6,37.2,30.19,NNE,26,0.0,1.0,78,0.00,,,0.00,Wunderground v.1.15,2013-10-25 07:15:00,
2013-10-25 03:20:00,43.5,37.1,30.19,NW,323,0.0,0.0,78,0.00,,,0.00,Wunderground v.1.15,2013-10-25 07:20:00,
2013-10-25 03:25:00,43.4,37.0,30.20,NNW,342,0.0,0.0,78,0.00,,,0.00,Wunderground v.1.15,2013-10-25 07:25:00,
2013-10-25 03:30:00,43.4,37.0,30.20,NNW,342,0.0,0.0,78,0.00,,,0.00,Wunderground v.1.15,2013-10-25 07:30:00,
2013-10-25 03:40:00,43.4,37.0,30.21,NNW,342,0.0,1.0,78,0.00,,,0.00,Wunderground v.1.15,2013-10-25 07:40:00,
2013-10-25 03:45:00,43.3,37.2,30.21,NNW,342,0.0,1.0,79,0.00,,,0.00,Wunderground v.1.15,2013-10-25 07:45:00,
2013-10-25 03:55:00,43.3,37.2,30.21,NNW,342,0.0,0.0,79,0.00,,,0.00,Wunderground v.1.15,2013-10-25 07:55:00,
2013-10-25 04:00:00,43.3,37.2,30.21,NNW,342,0.0,0.0,79,0.00,,,0.00,Wunderground v.1.15,2013-10-25 08:00:00,
2013-10-25 04:05:00,43.3,37.2,30.21,NNW,342,0.0,0.0,79,0.00,,,0.00,Wunderground v.1.15,2013-10-25 08:05:00,
2013-10-25 04:15:00,43.2,37.4,30.21,NNW,341,0.0,2.0,80,0.00,,,0.00,Wunderground v.1.15,2013-10-25 08:15:00,
2013-10-25 04:20:00,43.2,37.4,30.21,NNW,341,0.0,0.0,80,0.00,,,0.00,Wunderground v.1.15,2013-10-25 08:20:00,
2013-10-25 04:25:00,43.2,37.4,30.21,NNW,341,0.0,0.0,80,0.00,,,0.00,Wunderground v.1.15,2013-10-25 08:25:00,
2013-10-25 04:30:00,43.1,37.3,30.21,NNW,341,0.0,0.0,80,0.00,,,0.00,Wunderground v.1.15,2013-10-25 08:30:00,
2013-10-25 04:40:00,43.1,37.3,30.21,NNW,341,0.0,0.0,80,0.00,,,0.00,Wunderground v.1.15,2013-10-25 08:40:00,
2013-10-25 04:45:00,43.1,37.3,30.21,NNW,341,0.0,0.0,80,0.00,,,0.00,Wunderground v.1.15,2013-10-25 08:45:00,
2013-10-25 04:55:00,43.0,36.9,30.22,NNW,341,0.0,0.0,79,0.00,,,0.00,Wunderground v.1.15,2013-10-25 08:55:00,
2013-10-25 05:00:00,42.9,36.5,30.22,NNW,341,0.0,0.0,78,0.00,,,0.00,Wunderground v.1.15,2013-10-25 09:00:00,
2013-10-25 05:05:00,42.9,36.5,30.23,NNW,341,0.0,0.0,78,0.00,,,0.00,Wunderground v.1.15,2013-10-25 09:05:00,
2013-10-25 05:10:00,43.0,38.5,30.22,NNW,341,0.0,0.0,84,0.00,,,0.00,Wunderground v.1.15,2013-10-25 09:10:00,
2013-10-25 05:20:00,42.9,37.8,30.23,NNW,341,0.0,0.0,82,0.00,,,0.00,Wunderground v.1.15,2013-10-25 09:20:00,
2013-10-25 05:25:00,42.8,38.3,30.23,NNW,341,0.0,0.0,84,0.00,,,0.00,Wunderground v.1.15,2013-10-25 09:25:00,
2013-10-25 05:35:00,42.5,37.7,30.23,NNW,341,0.0,0.0,83,0.00,,,0.00,Wunderground v.1.15,2013-10-25 09:35:00,
2013-10-25 05:40:00,42.4,38.2,30.23,NNW,341,0.0,0.0,85,0.00,,,0.00,Wunderground v.1.15,2013-10-25 09:40:00,
2013-10-25 05:45:00,42.2,38.0,30.23,NNW,341,0.0,0.0,85,0.00,,,0.00,Wunderground v.1.15,2013-10-25 09:45:00,
2013-10-25 05:55:00,41.9,37.1,30.23,NNW,341,0.0,0.0,83,0.00,,,0.00,Wunderground v.1.15,2013-10-25 09:55:00,
2013-10-25 06:00:00,41.8,37.9,30.23,NNW,341,0.0,0.0,86,0.00,,,0.00,Wunderground v.1.15,2013-10-25 10:00:00,
2013-10-25 06:05:00,41.4,37.5,30.23,NNW,341,0.0,0.0,86,0.00,,,0.00,Wunderground v.1.15,2013-10-25 10:05:00,
2013-10-25 06:15:00,40.8,36.6,30.24,NNW,341,0.0,0.0,85,0.00,,,0.00,Wunderground v.1.15,2013-10-25 10:15:00,
2013-10-25 06:20:00,40.5,36.3,30.24,NNW,341,0.0,0.0,85,0.00,,,0.00,Wunderground v.1.15,2013-10-25 10:20:00,
2013-10-25 06:25:00,40.3,36.4,30.24,NNW,341,0.0,0.0,86,0.00,,,0.00,Wunderground v.1.15,2013-10-25 10:25:00,
2013-10-25 06:35:00,39.8,36.2,30.24,NNW,341,0.0,0.0,87,0.00,,,0.00,Wunderground v.1.15,2013-10-25 10:35:00,
2013-10-25 06:40:00,39.5,36.0,30.25,NNW,341,0.0,0.0,87,0.00,,,0.00,Wunderground v.1.15,2013-10-25 10:40:00,
2013-10-25 06:45:00,39.2,35.9,30.25,NNW,341,0.0,0.0,88,0.00,,,0.00,Wunderground v.1.15,2013-10-25 10:45:00,
2013-10-25 06:55:00,38.7,35.5,30.25,NNW,341,0.0,0.0,88,0.00,,,0.00,Wunderground v.1.15,2013-10-25 10:55:00,
2013-10-25 07:05:00,38.0,34.8,30.25,NNW,341,0.0,0.0,88,0.00,,,0.00,Wunderground v.1.15,2013-10-25 11:05:00,
2013-10-25 07:10:00,37.8,34.8,30.26,NNW,341,0.0,0.0,89,0.00,,,0.00,Wunderground v.1.15,2013-10-25 11:10:00,
2013-10-25 07:20:00,37.4,34.7,30.26,NNW,341,0.0,0.0,90,0.00,,,0.00,Wunderground v.1.15,2013-10-25 11:20:00,
2013-10-25 07:30:00,37.1,34.7,30.26,NNW,341,0.0,0.0,91,0.00,,,0.00,Wunderground v.1.15,2013-10-25 11:30:00,
2013-10-25 07:40:00,36.8,34.4,30.26,NNW,341,0.0,0.0,91,0.00,,,0.00,Wunderground v.1.15,2013-10-25 11:40:00,
2013-10-25 07:45:00,36.6,34.2,30.26,NNW,341,0.0,0.0,91,0.00,,,0.00,Wunderground v.1.15,2013-10-25 11:45:00,
2013-10-25 08:20:00,37.3,34.6,30.27,North,351,0.0,0.0,90,0.00,,,0.00,Wunderground v.1.15,2013-10-25 12:20:00,
2013-10-25 08:30:00,37.8,34.6,30.28,North,351,0.0,0.0,88,0.00,,,0.00,Wunderground v.1.15,2013-10-25 12:30:00,
2013-10-25 08:40:00,38.7,34.9,30.28,North,10,1.0,2.0,86,0.00,,,0.00,Wunderground v.1.15,2013-10-25 12:40:00,
2013-10-25 08:45:00,39.2,34.8,30.28,NW,316,1.0,2.0,84,0.00,,,0.00,Wunderground v.1.15,2013-10-25 12:45:00,
2013-10-25 08:55:00,39.9,35.2,30.29,NNW,332,0.0,2.0,83,0.00,,,0.00,Wunderground v.1.15,2013-10-25 12:55:00,
2013-10-25 09:05:00,40.6,35.2,30.29,NE,41,1.0,1.0,81,0.00,,,0.00,Wunderground v.1.15,2013-10-25 13:05:00,
2013-10-25 09:15:00,41.4,35.4,30.30,NNW,340,1.0,4.0,79,0.00,,,0.00,Wunderground v.1.15,2013-10-25 13:15:00,
2013-10-25 09:20:00,41.8,35.4,30.30,NW,325,1.0,1.0,78,0.00,,,0.00,Wunderground v.1.15,2013-10-25 13:20:00,
2013-10-25 09:30:00,42.4,35.7,30.30,NNE,31,1.0,1.0,77,0.00,,,0.00,Wunderground v.1.15,2013-10-25 13:30:00,
2013-10-25 09:40:00,43.2,35.8,30.30,WNW,295,1.0,1.0,75,0.00,,,0.00,Wunderground v.1.15,2013-10-25 13:40:00,
2013-10-25 09:50:00,44.0,34.8,30.30,NNE,32,2.0,2.0,70,0.00,,,0.00,Wunderground v.1.15,2013-10-25 13:50:00,
2013-10-25 10:00:00,45.0,35.1,30.30,NE,46,2.0,4.0,68,0.00,,,0.00,Wunderground v.1.15,2013-10-25 14:00:00,
2013-10-25 10:05:00,45.5,34.4,30.30,North,9,3.0,5.0,65,0.00,,,0.00,Wunderground v.1.15,2013-10-25 14:05:00,
2013-10-25 10:15:00,46.4,33.7,30.30,NE,44,3.0,3.0,61,0.00,,,0.00,Wunderground v.1.15,2013-10-25 14:15:00,
2013-10-25 10:25:00,46.7,32.3,30.30,NE,52,3.0,5.0,57,0.00,,,0.00,Wunderground v.1.15,2013-10-25 14:25:00,
2013-10-25 10:35:00,47.0,33.0,30.30,NNE,19,3.0,6.0,58,0.00,,,0.00,Wunderground v.1.15,2013-10-25 14:35:00,
2013-10-25 10:45:00,47.6,32.2,30.30,NE,56,3.0,3.0,55,0.00,,,0.00,Wunderground v.1.15,2013-10-25 14:45:00,
2013-10-25 10:50:00,47.7,32.8,30.30,NE,39,3.0,6.0,56,0.00,,,0.00,Wunderground v.1.15,2013-10-25 14:50:00,
2013-10-25 11:00:00,48.1,32.7,30.30,NE,55,3.0,3.0,55,0.00,,,0.00,Wunderground v.1.15,2013-10-25 15:00:00,
2013-10-25 11:10:00,48.4,32.5,30.30,NE,46,2.0,2.0,54,0.00,,,0.00,Wunderground v.1.15,2013-10-25 15:10:00,
2013-10-25 11:15:00,48.4,33.4,30.30,NE,38,2.0,2.0,56,0.00,,,0.00,Wunderground v.1.15,2013-10-25 15:15:00,
2013-10-25 11:25:00,48.9,33.4,30.31,NE,36,2.0,3.0,55,0.00,,,0.00,Wunderground v.1.15,2013-10-25 15:25:00,
2013-10-25 11:35:00,49.5,32.1,30.31,NE,51,4.0,7.0,51,0.00,,,0.00,Wunderground v.1.15,2013-10-25 15:35:00,
2013-10-25 11:45:00,49.6,32.7,30.31,NE,50,3.0,4.0,52,0.00,,,0.00,Wunderground v.1.15,2013-10-25 15:45:00,
2013-10-25 11:55:00,50.6,33.1,30.31,West,278,3.0,3.0,51,0.00,,,0.00,Wunderground v.1.15,2013-10-25 15:55:00,
2013-10-25 12:05:00,50.9,31.9,30.30,NNE,30,2.0,3.0,48,0.00,,,0.00,Wunderground v.1.15,2013-10-25 16:05:00,
2013-10-25 12:10:00,51.4,33.4,30.30,ENE,61,2.0,5.0,50,0.00,,,0.00,Wunderground v.1.15,2013-10-25 16:10:00,
2013-10-25 12:20:00,51.6,32.0,30.30,NNE,33,4.0,4.0,47,0.00,,,0.00,Wunderground v.1.15,2013-10-25 16:20:00,
2013-10-25 12:30:00,52.2,32.0,30.30,NNW,348,2.0,2.0,46,0.00,,,0.00,Wunderground v.1.15,2013-10-25 16:30:00,
2013-10-25 12:40:00,52.6,32.4,30.30,NE,55,2.0,4.0,46,0.00,,,0.00,Wunderground v.1.15,2013-10-25 16:40:00,
2013-10-25 12:50:00,52.7,32.5,30.30,WNW,287,3.0,5.0,46,0.00,,,0.00,Wunderground v.1.15,2013-10-25 16:50:00,
2013-10-25 12:55:00,52.7,34.1,30.30,NE,37,3.0,5.0,49,0.00,,,0.00,Wunderground v.1.15,2013-10-25 16:55:00,
2013-10-25 13:05:00,52.8,31.5,30.29,NW,325,3.0,4.0,44,0.00,,,0.00,Wunderground v.1.15,2013-10-25 17:05:00,
2013-10-25 13:15:00,53.2,32.4,30.29,NE,36,2.0,3.0,45,0.00,,,0.00,Wunderground v.1.15,2013-10-25 17:15:00,
2013-10-25 13:25:00,53.2,30.7,30.29,ENE,70,3.0,3.0,42,0.00,,,0.00,Wunderground v.1.15,2013-10-25 17:25:00,
2013-10-25 13:30:00,53.3,31.9,30.29,NNW,342,3.0,3.0,44,0.00,,,0.00,Wunderground v.1.15,2013-10-25 17:30:00,
2013-10-25 13:40:00,53.8,30.6,30.28,NNE,32,2.0,7.0,41,0.00,,,0.00,Wunderground v.1.15,2013-10-25 17:40:00,
2013-10-25 13:50:00,53.7,32.3,30.28,North,349,3.0,3.0,44,0.00,,,0.00,Wunderground v.1.15,2013-10-25 17:50:00,
2013-10-25 14:00:00,54.1,30.3,30.28,NNE,31,4.0,8.0,40,0.00,,,0.00,Wunderground v.1.15,2013-10-25 18:00:00,
2013-10-25 14:10:00,54.1,31.5,30.28,NE,36,3.0,3.0,42,0.00,,,0.00,Wunderground v.1.15,2013-10-25 18:10:00,
2013-10-25 14:20:00,54.3,31.1,30.27,ENE,63,3.0,4.0,41,0.00,,,0.00,Wunderground v.1.15,2013-10-25 18:20:00,
2013-10-25 14:30:00,54.4,31.8,30.27,NW,309,2.0,3.0,42,0.00,,,0.00,Wunderground v.1.15,2013-10-25 18:30:00,
2013-10-25 14:40:00,54.8,32.7,30.27,WNW,292,2.0,3.0,43,0.00,,,0.00,Wunderground v.1.15,2013-10-25 18:40:00,
2013-10-25 14:50:00,55.1,31.8,30.26,NE,40,2.0,2.0,41,0.00,,,0.00,Wunderground v.1.15,2013-10-25 18:50:00,
2013-10-25 14:55:00,55.4,31.5,30.27,NNE,12,2.0,3.0,40,0.00,,,0.00,Wunderground v.1.15,2013-10-25 18:55:00,
2013-10-25 15:05:00,54.9,31.6,30.27,NNW,344,3.0,6.0,41,0.00,,,0.00,Wunderground v.1.15,2013-10-25 19:05:00,
2013-10-25 15:15:00,55.1,32.4,30.26,NNE,12,2.0,3.0,42,0.00,,,0.00,Wunderground v.1.15,2013-10-25 19:15:00,
2013-10-25 15:25:00,54.5,30.0,30.26,ENE,78,3.0,3.0,39,0.00,,,0.00,Wunderground v.1.15,2013-10-25 19:25:00,
2013-10-25 15:35:00,54.4,30.6,30.26,NNE,31,2.0,3.0,40,0.00,,,0.00,Wunderground v.1.15,2013-10-25 19:35:00,
2013-10-25 15:45:00,54.2,31.6,30.26,ENE,61,0.0,1.0,42,0.00,,,0.00,Wunderground v.1.15,2013-10-25 19:45:00,
2013-10-25 15:55:00,54.3,30.5,30.26,NE,41,2.0,2.0,40,0.00,,,0.00,Wunderground v.1.15,2013-10-25 19:55:00,
2013-10-25 16:05:00,54.1,30.9,30.26,NNE,33,2.0,3.0,41,0.00,,,0.00,Wunderground v.1.15,2013-10-25 20:05:00,
2013-10-25 16:15:00,54.0,30.2,30.27,NE,42,2.0,2.0,40,0.00,,,0.00,Wunderground v.1.15,2013-10-25 20:15:00,
2013-10-25 16:20:00,53.9,30.7,30.27,NE,52,3.0,4.0,41,0.00,,,0.00,Wunderground v.1.15,2013-10-25 20:20:00,
2013-10-25 16:30:00,53.8,30.0,30.27,NNE,30,2.0,2.0,40,0.00,,,0.00,Wunderground v.1.15,2013-10-25 20:30:00,
2013-10-25 16:40:00,53.7,30.5,30.26,NE,35,2.0,2.0,41,0.00,,,0.00,Wunderground v.1.15,2013-10-25 20:40:00,
2013-10-25 16:50:00,53.7,29.9,30.26,NNE,15,2.0,2.0,40,0.00,,,0.00,Wunderground v.1.15,2013-10-25 20:50:00,
2013-10-25 17:00:00,53.4,29.7,30.26,NE,35,2.0,2.0,40,0.00,,,0.00,Wunderground v.1.15,2013-10-25 21:00:00,
2013-10-25 17:10:00,53.2,30.7,30.27,NNE,12,1.0,1.0,42,0.00,,,0.00,Wunderground v.1.15,2013-10-25 21:10:00,
2013-10-25 17:20:00,52.9,30.4,30.27,NNW,336,2.0,2.0,42,0.00,,,0.00,Wunderground v.1.15,2013-10-25 21:20:00,
2013-10-25 17:30:00,52.7,31.4,30.28,North,360,1.0,1.0,44,0.00,,,0.00,Wunderground v.1.15,2013-10-25 21:30:00,
2013-10-25 17:40:00,52.3,32.1,30.28,NNE,15,1.0,1.0,46,0.00,,,0.00,Wunderground v.1.15,2013-10-25 21:40:00,
2013-10-25 17:45:00,52.1,34.0,30.28,NNE,15,0.0,1.0,50,0.00,,,0.00,Wunderground v.1.15,2013-10-25 21:45:00,
2013-10-25 17:55:00,51.3,36.1,30.28,NNE,15,0.0,0.0,56,0.00,,,0.00,Wunderground v.1.15,2013-10-25 21:55:00,
2013-10-25 18:05:00,50.5,36.3,30.28,NNE,15,0.0,0.0,58,0.00,,,0.00,Wunderground v.1.15,2013-10-25 22:05:00,
2013-10-25 18:15:00,49.2,36.7,30.28,NNE,15,0.0,0.0,62,0.00,,,0.00,Wunderground v.1.15,2013-10-25 22:15:00,
2013-10-25 18:25:00,48.3,37.1,30.29,NNE,15,0.0,0.0,65,0.00,,,0.00,Wunderground v.1.15,2013-10-25 22:25:00,
2013-10-25 18:30:00,47.8,37.4,30.29,NNE,15,0.0,0.0,67,0.00,,,0.00,Wunderground v.1.15,2013-10-25 22:30:00,
2013-10-25 18:40:00,46.7,37.1,30.29,NNE,15,0.0,0.0,69,0.00,,,0.00,Wunderground v.1.15,2013-10-25 22:40:00,
2013-10-25 18:50:00,45.8,36.9,30.29,NNE,15,0.0,0.0,71,0.00,,,0.00,Wunderground v.1.15,2013-10-25 22:50:00,
2013-10-25 19:00:00,44.9,37.5,30.29,NNE,15,0.0,0.0,75,0.00,,,0.00,Wunderground v.1.15,2013-10-25 23:00:00,
2013-10-25 19:10:00,43.8,37.1,30.29,NNE,15,0.0,0.0,77,0.00,,,0.00,Wunderground v.1.15,2013-10-25 23:10:00,
2013-10-25 19:20:00,43.0,36.9,30.30,NNE,15,0.0,0.0,79,0.00,,,0.00,Wunderground v.1.15,2013-10-25 23:20:00,
2013-10-25 19:30:00,42.2,36.8,30.30,NNE,15,0.0,0.0,81,0.00,,,0.00,Wunderground v.1.15,2013-10-25 23:30:00,
2013-10-25 19:40:00,41.5,36.7,30.30,NNE,15,0.0,0.0,83,0.00,,,0.00,Wunderground v.1.15,2013-10-25 23:40:00,
2013-10-25 19:45:00,41.1,36.6,30.30,NNE,15,0.0,0.0,84,0.00,,,0.00,Wunderground v.1.15,2013-10-25 23:45:00,
2013-10-25 19:50:00,40.9,36.1,30.31,NNE,15,0.0,0.0,83,0.00,,,0.00,Wunderground v.1.15,2013-10-25 23:50:00,
2013-10-25 20:00:00,40.3,36.1,30.30,NNE,15,0.0,0.0,85,0.00,,,0.00,Wunderground v.1.15,2013-10-26 00:00:00,
2013-10-25 20:10:00,39.7,35.9,30.31,NNE,15,0.0,0.0,86,0.00,,,0.00,Wunderground v.1.15,2013-10-26 00:10:00,
2013-10-25 20:20:00,39.3,35.8,30.31,NNE,15,0.0,0.0,87,0.00,,,0.00,Wunderground v.1.15,2013-10-26 00:20:00,
2013-10-25 20:25:00,39.0,35.5,30.31,NNE,15,0.0,0.0,87,0.00,,,0.00,Wunderground v.1.15,2013-10-26 00:25:00,
2013-10-25 20:35:00,38.6,35.4,30.31,NNE,15,0.0,0.0,88,0.00,,,0.00,Wunderground v.1.15,2013-10-26 00:35:00,
2013-10-25 20:45:00,38.1,34.9,30.31,NNE,15,0.0,0.0,88,0.00,,,0.00,Wunderground v.1.15,2013-10-26 00:45:00,
2013-10-25 20:55:00,37.7,34.8,30.31,NNE,15,0.0,0.0,89,0.00,,,0.00,Wunderground v.1.15,2013-10-26 00:55:00,
2013-10-25 21:05:00,37.3,34.1,30.31,NNE,15,0.0,0.0,88,0.00,,,0.00,Wunderground v.1.15,2013-10-26 01:05:00,
2013-10-25 21:15:00,37.0,34.3,30.32,NNE,15,0.0,0.0,90,0.00,,,0.00,Wunderground v.1.15,2013-10-26 01:15:00,
2013-10-25 21:25:00,36.8,34.4,30.32,NNE,15,0.0,0.0,91,0.00,,,0.00,Wunderground v.1.15,2013-10-26 01:25:00,
2013-10-25 21:35:00,36.3,33.9,30.32,NNE,15,0.0,0.0,91,0.00,,,0.00,Wunderground v.1.15,2013-10-26 01:35:00,
2013-10-25 21:45:00,36.0,33.6,30.33,NNE,15,0.0,0.0,91,0.00,,,0.00,Wunderground v.1.15,2013-10-26 01:45:00,
2013-10-25 21:55:00,35.7,33.6,30.33,NNE,15,0.0,0.0,92,0.00,,,0.00,Wunderground v.1.15,2013-10-26 01:55:00,
2013-10-25 22:00:00,35.5,33.4,30.33,NNE,15,0.0,0.0,92,0.00,,,0.00,Wunderground v.1.15,2013-10-26 02:00:00,
2013-10-25 22:10:00,35.2,33.1,30.34,NNE,15,0.0,0.0,92,0.00,,,0.00,Wunderground v.1.15,2013-10-26 02:10:00,
2013-10-25 22:20:00,35.0,33.2,30.34,NNE,15,0.0,0.0,93,0.00,,,0.00,Wunderground v.1.15,2013-10-26 02:20:00,
2013-10-25 22:30:00,34.8,33.0,30.34,NNE,15,0.0,0.0,93,0.00,,,0.00,Wunderground v.1.15,2013-10-26 02:30:00,
2013-10-25 22:40:00,34.4,32.6,30.35,NNE,15,0.0,0.0,93,0.00,,,0.00,Wunderground v.1.15,2013-10-26 02:40:00,
2013-10-25 22:50:00,34.2,32.7,30.35,NNE,15,0.0,0.0,94,0.00,,,0.00,Wunderground v.1.15,2013-10-26 02:50:00,
2013-10-25 22:55:00,34.1,32.6,30.35,NNE,15,0.0,0.0,94,0.00,,,0.00,Wunderground v.1.15,2013-10-26 02:55:00,
2013-10-25 23:05:00,34.0,32.5,30.35,NNE,15,0.0,0.0,94,0.00,,,0.00,Wunderground v.1.15,2013-10-26 03:05:00,
2013-10-25 23:15:00,33.9,32.4,30.35,NNE,15,0.0,0.0,94,0.00,,,0.00,Wunderground v.1.15,2013-10-26 03:15:00,
2013-10-25 23:25:00,33.5,32.0,30.35,NNE,15,0.0,0.0,94,0.00,,,0.00,Wunderground v.1.15,2013-10-26 03:25:00,
2013-10-25 23:35:00,33.3,31.8,30.35,NNE,15,0.0,0.0,94,0.00,,,0.00,Wunderground v.1.15,2013-10-26 03:35:00,
2013-10-25 23:45:00,33.0,31.5,30.35,NNE,15,0.0,0.0,94,0.00,,,0.00,Wunderground v.1.15,2013-10-26 03:45:00,
2013-10-25 23:55:00,32.8,31.3,30.35,NNE,15,0.0,0.0,94,0.00,,,0.00,Wunderground v.1.15,2013-10-26 03:55:00,